sat.trackr.live / text

‹ back to catalog

KUIPER-00015

NORAD 63731 · 2025-088H

PAYLOAD ACTIVE UNKNOWN

§ Identity

Operator
Country
US
Launch date
2025-04-28
Launch site
AFETR
Launch vehicle
Mass (kg)
RCS (m²)

External: N2YO · Heavens-Above · Gunter

§ Orbital elements

Epoch: 2026-05-25T03:32:23.941248Z

Period
97.30 min
Inclination
51.8984°
Eccentricity
0.0000498
Mean motion
14.79941868 rev/d
Perigee alt
629.2 km
Apogee alt
629.9 km
Semi-major
7,007.6 km
B*
1.8737e-4
RAAN
140.0275°
Arg perigee
44.7314°
Mean anomaly
315.3688°
Rev number
5,902

§ Raw data

KUIPER-000151 63731U 25088H   26145.14749932  .00001208  00000+0  18737-3 0  99992 63731  51.8984 140.0275 0000498  44.7314 315.3688 14.79941868 59027

JSON: /api/v1/satellites/63731 · /tle

For live sub-satellite position, see the globe view (requires WebGL).

§ Visibility from observer

Set your observer location to see the next 7 days of passes ≥ 10°. The values pass through the URL so the page stays shareable.

No JS? Fill the form by hand. The geolocation button needs JavaScript.